www.pogodaiklimat.ru

Погода и климат >> Архив погоды >> Россия >> Якутия >> Тегюльтя


АРХИВ ПОГОДЫ в Тегюльте

Время (UTC), дата Ветер
(напр.,м/с)
 
Видим.   Явления Облачность Т
(С)
Тd
(С)
f
(%)
Тe
(С)
Тes
(С)
Комфортность P
(гПа)
Po
(гПа)
Тmin
(С)
Tmax
(С)
R
(мм)
R24
(мм)
S
(см)
00 16.09 СВ 1 50 км 10/0
[Ac As]
+4.4 -3.7 56 +4 +4 1005.3 984.4 +1.0
03 16.09 В 2 50 км 10/0
[Ac As]
+7.9 -2.3 48 +6 +8 1004.0 983.4
06 16.09 С 5 50 км 10/0
[As op]
+9.0 -3.6 41 +6 +7 1004.0 983.4
09 16.09 С 3 50 км 10/0
[As op]
+8.0 -1.4 51 +6 +6 1005.1 984.5
12 16.09 С 1 20 км 10/0
[As op]
+5.8 -0.4 64 +5 +5 1006.8 986.0 +9.0
15 16.09 штиль 0 20 км 10/0
[As op]
+5.5 +0.3 69 +5 +5 1006.0 985.2
18 16.09 штиль 0 20 км 10/0
[As op]
+4.2 -0.6 71 +3 +3 1006.1 985.2
21 16.09 ЮЗ 3 20 км 10/0
[As op]
+2.4 -2.2 72 -2 -2 1006.3 985.2
00 17.09 ЮЗ 2 20 км слаб. дождь 10/0
[As op]
+2.0 +0.7 91 -1 -1 1006.4 985.3 +1.9 1
03 17.09 ЮЗ 2 20 км слаб. дождь со снегом 10/0
[As op]
+1.2 +0.6 96 -2 -1 1007.1 985.9
06 17.09 ЮЗ 4 20 км слаб. дождь 10/0
[As op]
+2.1 +1.6 96 -3 -3 1008.8 987.6
09 17.09 Ю 2 50 км в посл. час дождь 10/0
[As op]
+2.7 +1.9 94 -1 -1 1009.6 988.4
12 17.09 Ю 3 20 км {дождь} 10/0
[As op]
+2.2 +1.1 92 -2 -2 1010.4 989.2 +2.7 14
15 17.09 ЮЗ 2 20 км 10/0
[As op]
+2.4 +0.8 89 -1 -1 1010.4 989.2
18 17.09 ЮЗ 3 20 км слаб. дождь со снегом 10/0
[As op]
+2.4 +1.4 93 -2 -2 1010.6 989.4
21 17.09 Ю 4 20 км слаб. дождь со снегом 10/0
[As op]
+2.0 +1.2 94 -3 -3 1011.6 990.4
00 18.09 ЮЗ 2 50 км {снег} 10/8 600 м
[Frnb As op]
+1.7 +0.3 90 -2 -2 1013.8 992.5 +1.6 1
03 18.09 ЮЗ 3 50 км 10/10 1000 м
[Sc]
+3.0 +0.3 82 -1 -1 1015.1 993.8
06 18.09 ЮЗ 1 50 км 10/10 1000 м
[Sc]
+3.6 -0.1 77 +2 +2 1016.3 995.1
09 18.09 З 2 50 км 10/10 1000 м
[Sc]
+3.5 -1.2 71 +1 +1 1017.4 996.2
12 18.09 штиль 0 20 км 6/0
[Ac trans]
+1.6 -0.6 85 +1 +1 1018.3 997.0 +3.6
15 18.09 штиль 0 20 км 8/0
[Ac trans]
-0.8 -2.6 88 -2 -2 1018.6 997.0
18 18.09 штиль 0 20 км 10/0
[Ac As]
-1.0 -2.8 88 -2 -2 1018.6 997.0
21 18.09 штиль 0 50 км 10/0
[Ac As]
-1.3 -3.2 87 -2 -2 1017.7 996.1
00 19.09 штиль 0 50 км 10/0
[Ac As]
+1.8 -1.0 82 +1 +2 1017.3 986.0 -1.4
03 19.09 В 4 50 км 10/3 1000 м
[Sc Ci fib]
+7.8 +1.7 65 +5 +7 1014.0 993.2
06 19.09 В 3 50 км 10/8 1000 м
[Sc Ci fib]
+7.6 -1.0 54 +5 +6 1012.3 991.6
09 19.09 С 1 50 км 10/0
[Ac As]
+8.2 -2.9 45 +8 +8 1011.0 990.3
12 19.09 Ю 1 20 км 10/0
[As op]
+6.9 +1.2 67 +6 +6 1011.2 990.3 +8.2
15 19.09 штиль 0 20 км 10/0
[As op]
+6.3 +1.6 72 +6 +6 1011.2 990.3
18 19.09 ЮЗ 3 20 км 10/0
[As op]
+5.9 +1.7 74 +3 +3 1012.7 991.8
21 19.09 Ю 2 20 км 6/0
[As trans]
+2.0 -1.7 76 -1 -1 1014.8 993.5
00 20.09 ЮЗ 3 50 км 10/0
[Ac As]
+3.4 -1.0 73 -0 0 1016.7 995.5 +1.9
03 20.09 ЮЗ 4 50 км 10/0
[Ac As]
+5.3 -0.2 68 +2 +3 1017.5 996.3
06 20.09 ЮЗ 3 50 км 10/8 1000 м
[Sc]
+7.1 +0.8 64 +4 +5 1019.0 997.9
09 20.09 З 2 50 км 8/3 1000 м
[Sc Ac trans]
+5.9 -1.0 61 +4 +4 1019.8 998.7
12 20.09 штиль 0 20 км 8/0
[Ac trans]
+4.9 +0.5 73 +4 +4 1020.5 999.2 +7.4
15 20.09 штиль 0 20 км 3/0
[Ac trans]
-3.2 -6.7 77 -4 -4 1021.1 999.2
18 20.09 штиль 0 20 км 6/0
[Ac trans]
-3.4 -6.6 78 -4 -4 1021.5 998.2
21 20.09 штиль 0 20 км 8/0
[Ac trans]
-3.8 -6.7 80 -5 -5 1018.4 996.6
00 21.09 штиль 0 50 км 8/0
[Ac trans]
-1.8 -5.1 78 -3 -1 1018.2 996.6 -3.9
03 21.09 В 2 50 км 8/0
[Ac trans Ci fib]
+7.7 -1.2 53 +6 +10 1015.2 994.4
06 21.09 З 1 50 км 10/0
[Ac As]
+8.9 -0.5 52 +9 +10 1014.9 994.1
09 21.09 З 1 50 км 10/0
[Ac As]
+8.3 -1.4 50 +8 +8 1013.7 992.9
12 21.09 штиль 0 20 км 10/10 1000 м
[Sc]
+4.9 +1.4 78 +4 +4 1014.7 993.5 +9.4
15 21.09 штиль 0 20 км 10/0
[Ac As]
+3.2 0.0 80 +2 +2 1014.9 993.6
18 21.09 штиль 0 20 км 4/0
[Ac trans]
-3.0 -6.1 79 -4 -4 1015.6 993.8
21 21.09 СВ 1 20 км 6/0
[Ac trans]
-3.5 -6.3 81 -6 -6 1014.4 992.6
00 22.09 С 1 50 км 10/0
[As op]
-0.2 -2.9 82 -2 -2 1014.1 992.6 -3.6
03 22.09 С 1 20 км слаб. дождь 10/0
[As op]
+4.1 +1.6 84 +3 +4 1010.5 989.5
06 22.09 С 1 20 км слаб. дождь 10/0
[As op]
+5.3 +4.1 92 +4 +5 1010.4 989.5
09 22.09 штиль 0 50 км {дождь} 10/0
[As op]
+5.2 +2.8 84 +4 +4 1012.1 991.1
12 22.09 штиль 0 10 км слаб. дождь 10/0 600 м
[As op]
+5.5 +3.6 88 +4 +4 1012.9 992.0 +5.5 6
15 22.09 З 2 10 км слаб. дождь 10/0
[As op]
+5.3 +4.6 95 +3 +3 1013.9 993.0
18 22.09 штиль 0 20 км {дождь} 10/0
[As op]
+3.2 +1.9 91 +2 +2 1014.3 993.1
21 22.09 штиль 0 20 км 10/0
[As op]
+2.2 +0.9 91 +1 +1 1014.7 993.4

 

Местоположение метеостанции Тегюльтя (Якутия, Россия): широта 60.47 долгота 130.00 высота над уровнем моря 171 м.

В архиве по умолчанию представлена погода в Тегюльте за последнюю неделю. Архивные данные за месяц целиком и за предыдущие месяцы, начиная с января 2011 года, Вы можете получить, выбрав интересующий диапазон дат из раскрывающегося списка и нажав кнопку "Ввод!".


*Определитесь, кто Вы:
робот инопланетянин человек

Внимание! Время в таблицах - всемирное. Для получения местного времени необходимо прибавить поправку, которая равна 9 ч.

Смотрите также архив погоды в соседних городах и на ближайших метеорологических станциях:

Погода в Амге (Якутия, Россия) (114 км)
Погода в Покровске (Якутия, Россия) (122 км)
Погода в Якутске (Якутия, Россия) (172 км)
Погода в Буяге (Якутия, Россия) (189 км)
Погода в Усть-Миле (Якутия, Россия) (191 км)
Погода в Учуре (Якутия, Россия) (196 км)
Погода в Угино (Якутия, Россия) (221 км)
Погода в Чурапче (Якутия, Россия) (222 км)
Погода в Усть-Мае (Якутия, Россия) (242 км)
Погода в Намцах (Якутия, Россия) (251 км)

Пояснения к столбцам:

Ветер - указаны скорость ветра в м/с - средняя за 10 мин, порывы в срок и между сроками (в фигурных скобках) и направление, откуда дует ветер: С - северный, СВ - северо-восточный, В - восточный, ЮВ - юго-восточный, Ю - южный, ЮЗ - юго-западный, З - западный, СЗ - северо-западный.
Видимость - горизонтальная дальность видимости в метрах или километрах. При видимости от 1 до 10 км при отсутствии осадков обычно наблюдается дымка, при ухудшении видимости до 1 км и менее - туман. В сухую погоду видимость может ухудшаться дымом, пылью или мглою.
Явления - указаны атмосферные явления, наблюдавшиеся в срок или в последний час перед сроком; фигурными скобками обозначены явления, наблюдавшиеся между сроками (за 1-3 часа до срока); квадратными скобками обозначены град или гололедные отложения с указанием их диаметра в мм.
Облачность - указаны через наклонную черту общая и нижняя облачность в баллах и высота нижней границы облаков в метрах; квадратными скобками обозначены формы облаков: Ci - перистые, Cs - перисто-слоистые, Cc - перисто-кучевые, Ac - высококучевые, As - высокослоистые, Sc - слоисто-кучевые, Ns - слоисто-дождевые, Cu - кучевые, Cb - кучево-дождевые. Подробнее классификацию облаков см. в Атласе облаков (PDF).
T - Температура воздуха - температура, измеренная на высоте 2 м над землей.
Td - Температура точки росы - температура, при понижении до которой содержащийся в воздухе водяной пар достигнет насыщения.
f - Относительная влажность воздуха - влажноcть воздуха, измеренная на высоте 2 м над землей.
Te - Эффективная температура - температура, которую ощущает одетый по сезону человек в тени. Характеристика душности погоды. При расчете учитывается влияние влажности воздуха и скорости ветра на теплоощущения человека.
Tes - Эффективная температура на солнце - температура, которую ощущает человек, с поправкой на солнечный нагрев. Характеристика знойности погоды. Зависит от высоты солнца над горизонтом, облачности и скорости ветра. Ночью, в пасмурную погоду, а также при ветре 12 м/с и более поправка равна нулю.
P - Атмосферное давление - приведенное к уровню моря атмосферное давление.
Po - Атмосферное давление - измеренное на уровне метеостанции атмосферное давление.
Tmin - Минимальная температура - минимум температуры воздуха на высоте 2 м над землей.
Tmax - Максимальная температура - максимум температуры воздуха на высоте 2 м над землей.
R - Количество осадков - Количество выпавших осадков за период времени, мм. При наведении курсора мыши на число - период времени, за который выпало указанное количество осадков.
R24 - Количество осадков - Количество выпавших осадков за 24 часа, мм.
S - Снежный покров - Высота снежного покрова, см. При наведении курсора мыши на число - состояние снежного покрова и степень покрытия местности в баллах.